Orbital Elements at Epoch 2459200.5 (2020-Dec-17.0) TDB
Reference: JPL 16 (heliocentric ecliptic J2000)
Element | Value | Uncertainty (1-sigma) | Units |
e | .05637749081692418 | 7.6099e-08 | |
a | 3.057572093105163 | 5.3754e-08 | au |
q | 2.885193850504043 | 2.4218e-07 | au |
i | 11.51226152932009 | 6.7988e-06 | deg |
node | 143.7299338288518 | 3.7933e-05 | deg |
peri | 269.7771365179159 | 0.00010226 | deg |
M | 355.0407005092528 | 8.6722e-05 | deg |
tp | 2459227.401798840180 (2021-Jan-12.90179884) | 0.00047019 | TDB |
period | 1952.825716723525 5.35 | 5.1498e-05 1.41e-07 | d yr |
n | .1843482482420461 | 4.8615e-09 | deg/d |
Q | 3.229950335706283 | 5.6785e-08 | au |
|
| | Orbit Determination Parameters
Additional Information
|